Regional Weather Roundup
Issued by NWS

Home | Current Version | Previous Version | Text Only | Print | Product List | Glossary On
Versions: 1 2 3 4 5 6 7 8 9 10 11 12 13 14 15 16 17 18 19 20 21 22 23 24 25 26 27 28 29 30 31 32 33 34 35 36 37 38 39 40 41 42 43 44 45 46 47 48 49 50
000
ASUS43 KMPX 101110
RWRMN
WEATHER ROUNDUP FOR MINNESOTA
NATIONAL WEATHER SERVICE TWIN CITIES/CHANHASSEN MN
500 AM CST SAT DEC 10 2016


NOTE: "FAIR" INDICATES FEW OR NO CLOUDS BELOW 12,000 FEET WITH NO
SIGNIFICANT WEATHER AND/OR OBSTRUCTIONS TO VISIBILITY. N/A MEANS
CURRENT SKY AND/OR WEATHER CONDITIONS ARE NOT AVAILABLE.

MNZ060>063-068>070-101200-
   Twin Cities Metro

CITY           SKY/WX    TMP DP  RH WIND       PRES   REMARKS
TWIN CITIES    CLEAR      4  -1  80 NW7       30.50F WCI  -8
ST PAUL        CLEAR      5   0  79 NW6       30.52F WCI  -6
CRYSTAL        CLEAR      3  -3  76 NW5       30.48F WCI  -6
BLAINE         CLEAR      3   0  85 W5        30.48F WCI  -6
LAKEVILLE      CLEAR      1  -2  85 CALM      30.48F
EDEN PRAIRIE   CLEAR      4  -1  80 W5        30.48F WCI  -5
SOUTH ST PAUL  CLEAR      6   0  78 NW5       30.50S WCI  -3
LAKE ELMO      FAIR       5   1  85 W5        30.49F WCI  -4
$$
MNZ001>005-007-008-013>017-022>024-027-028-101200-
   Northwest Minnesota

CITY           SKY/WX    TMP DP  RH WIND       PRES   REMARKS
BEMIDJI        CLOUDY   -10 -14  84 W3        30.44S
HALLOCK        CLOUDY   -11 -17  77 W3        30.53S
ROSEAU         CLOUDY    -9 -15  77 W7        30.47F WCI -24
WARROAD        CLOUDY   -11 -17  77 W3        30.46F
CROOKSTON      CLOUDY    -2  -6  84 N6        30.53S WCI -14
FOSSTON        MOCLDY   -15 -18  84 CALM      30.47S
DETROIT LAKES  CLOUDY   -11 -15  84 CALM      30.46S
MOORHEAD       CLOUDY    -8 -11  84 CALM      30.53S
PARK RAPIDS    CLOUDY    -9 -16  71 CALM      30.42F
$$
MNZ006-009>011-018-025>026-101200-
   North Central Minnesota

CITY           SKY/WX    TMP DP  RH WIND       PRES   REMARKS
BAUDETTE       CLEAR    -11 -16  78 W5        30.43F WCI -23
FLAG ISLAND    CLOUDY    -6  -9  84 W8        30.44S WCI -21
INTL FALLS     CLEAR     -7 -12  79 W6        30.42F WCI -20
WASKISH        CLOUDY    -2  -6  84 NW6       30.44F WCI -14
BIG FORK       MOCLDY    -4  -9  77 CALM      30.43S
LONGVILLE      CLOUDY     0  -6  78 CALM      30.44S
GRAND RAPIDS   FLURRIES   1  -5  75 NW7       30.44F WCI -12
CRANE LAKE     CLOUDY    -9 -11  92 CALM      30.45S
ORR            CLEAR     -9 -15  77 CALM      30.39S
COOK           FLURRIES  -6  -9  84 W3        30.41F
$$
MNZ012-019>021-037-101200-
   Northeast Minnesota

CITY           SKY/WX    TMP DP  RH WIND       PRES   REMARKS
DULUTH         CLOUDY     4  -3  73 NW7       30.39F WCI  -8
ELY            CLEAR     -8  -9  92 W3        30.39S
HIBBING        LGT SNOW  -2  -6  84 NW3       30.42R FOG
EVELETH        CLOUDY     0  -7  74 W8        30.42S WCI -15
DULUTH HARBOR  CLOUDY     9  -2  61 NW13      30.49S WCI  -7
TWO HARBORS    CLEAR      0  -6  78 CALM      30.42S
SILVER BAY     CLEAR      0  -6  78 CALM      30.41R
GRAND MARAIS     N/A     10   2  69 W7        30.43S WCI  -1
G MARAIS ARPRT LGT SNOW   1  -6  71 W5        30.29S WCI  -8
$$
MNZ029>031-032-039>041-046>048-054>057-064-101200-
   West Central Minnesota

CITY           SKY/WX    TMP DP  RH WIND       PRES   REMARKS
FERGUS FALLS   CLOUDY   -13 -18  77 CALM      30.56S
WHEATON        CLOUDY    -6 -11  77 W3        30.54S
MORRIS         CLOUDY    -8 -11  84 NW7       30.50R WCI -22
ALEXANDRIA     CLOUDY    -5  -9  83 W7        30.45F WCI -19
ELBOW LAKE     FAIR     -11 -15  82 NW3       30.49F
WADENA         CLOUDY    -8 -11  84 CALM      30.44F
GLENWOOD       CLOUDY    -8 -11  84 W5        30.46S WCI -19
APPLETON       CLOUDY    -2  -8  78 N5        30.52F WCI -12
BENSON         CLOUDY    -6  -9  84 N5        30.50S WCI -17
ORTONVILLE     CLOUDY    -6 -11  77 CALM      30.50S
MADISON        CLOUDY     1  -6  71 NW5       30.52S WCI  -8
WILLMAR        FAIR       0  -4  85 CALM      30.50S
$$
MNZ033>034-036-042>043-049>051-058-059-101200-
   Central Minnesota

CITY           SKY/WX    TMP DP  RH WIND       PRES   REMARKS
ST CLOUD       CLEAR     -1  -4  87 NW5       30.48F WCI -11
PAYNESVILLE    CLEAR     -3  -6  88 W5        30.48S WCI -14
AITKIN         CLOUDY     7  -4  61 N7        30.43S WCI  -5
PINE RIVER     CLOUDY     1  -4  78 CALM      30.46F
BRAINERD       CLOUDY     2  -2  83 W5        30.44F WCI  -8
LONG PRAIRIE   CLOUDY    -6  -8  92 CALM      30.45F
LITTLE FALLS   CLEAR     -2  -6  84 CALM      30.48S
LITCHFIELD     CLEAR      1  -2  85 CALM      30.49S
BUFFALO        CLEAR      2  -2  83 CALM      30.49F
MAPLE LAKE     CLEAR      2  -1  87 NW3       30.48F
HUTCHINSON     CLOUDY     2  -2  84 NW5       30.49F WCI  -8
$$
MNZ037-044-045-052-053-101200-
   East Central Minnesota

CITY           SKY/WX    TMP DP  RH WIND       PRES   REMARKS
PRINCETON      CLEAR      1  -2  85 W3        30.46F
MORA           PTCLDY     5  -2  72 NW3       30.48S
CAMBRIDGE      CLEAR      3  -4  72 CALM      30.46S
RUSH CITY      MOCLDY     7   1  78 W5        30.47S WCI  -2
MOOSE LAKE     CLOUDY     5  -4  66 NW5       30.43F WCI  -4
HINCKLEY       CLOUDY    10   1  67 NW7       30.45S WCI   0
CLOQUET        CLOUDY     3  -4  72 NW6       30.41F WCI  -8
MCGREGOR       CLOUDY     5   0  78 NW7       30.45S WCI  -7
$$
MNZ071>073-080-081-089-090-097-098-101200-
   Southwest Minnesota

CITY           SKY/WX    TMP DP  RH WIND       PRES   REMARKS
MONTEVIDEO     CLOUDY    -2  -6  84 N3        30.52F
GRANITE FALLS  CLOUDY     1  -3  84 CALM      30.53S
CANBY          CLOUDY     1  -4  82 CALM      30.50F
MARSHALL       CLOUDY     1  -3  83 N6        30.50S WCI -10
REDWOOD FALLS  CLOUDY     2  -4  76 W5        30.52R WCI  -8
OLIVIA         CLOUDY     0  -4  85 NW3       30.50S
PIPESTONE      CLOUDY     7   1  78 E6        30.41F WCI  -3
WINDOM         CLOUDY     7   1  78 MISG      30.46S
WORTHINGTON    FLURRIES   6   2  83 NE6       30.44F WCI  -4
JACKSON        FLURRIES   7   3  85 NE6       30.45S WCI  -3
TRACY          CLOUDY     5   1  86 NE5       30.47F WCI  -4
SLAYTON        CLOUDY     4   1  87 N5        30.45S WCI  -5
$$
MNZ065>067-074>077-082>085-091>093-101200-
   South Central Minnesota

CITY           SKY/WX    TMP DP  RH WIND       PRES   REMARKS
MANKATO        CLEAR      3  -2  79 NW6       30.51R WCI  -8
NEW ULM          N/A      1  -4  78 W3        30.52R
ST JAMES       CLOUDY     5   1  85 NW7       30.52R WCI  -7
FAIRMONT       FLURRIES   7   2  80 N6        30.49F WCI  -3
GLENCOE        CLEAR      3   1  88 NW5       30.49S WCI  -6
FARIBAULT      CLEAR      3   0  85 CALM      30.48F
OWATONNA       CLEAR      3  -2  78 W3        30.47F
WASECA         CLEAR      3   0  85 CALM      30.50R
ALBERT LEA     CLOUDY     9   5  85 CALM      30.47S
$$
MNZ078>079-086>088-094>096-101200-
   Southeast Minnesota

CITY           SKY/WX    TMP DP  RH WIND       PRES   REMARKS
ROCHESTER      CLOUDY     4   2  91 NW8       30.45S WCI  -9
RED WING       CLOUDY     9   1  72 W6        30.48F WCI  -1
STANTON        CLEAR      4  -1  81 CALM      30.49R
DODGE CENTER   PTCLDY     3   0  85 NW3       30.45S
WINONA         CLEAR     10   5  79 NW6       30.51F WCI   1
AUSTIN         FLURRIES   7   3  85 NW6       30.46S WCI  -3
PRESTON        CLOUDY     6   2  84 NW5       30.46S WCI  -3
$$
ABBREVIATIONS USED IN REMARKS
   TC - TEMPERATURES IN CELSIUS
  WCI - WIND CHILL INDEX
   HX - HEAT INDEX
  VSB - VISIBILITY
$$




USA.gov is the U.S. government's official web portal to all federal, state and local government web resources and services.